DW9210 Weather Reports


Display with metric or nautical units.
time (UTC)temp
F
wind
direction
speed
MPH
gust
MPH
rain 1hr
in
rain 24hr
in
rain mn
in
humidity
%
barometer
mb
20260505140524 66 198 3.0 9.0 0.00 0.04 0.00 66 1009.1
20260505125024 65 183 2.0 9.0 0.00 0.10 0.00 68 1009.4
20260505124503 65 185 2.0 7.0 0.00 0.10 0.00 68 1009.6
20260505124003 65 194 2.0 6.0 0.00 0.10 0.00 68 1009.5
20260505123503 65 201 2.0 5.0 0.00 0.11 0.00 68 1009.5
20260505123003 64 200 1.0 5.0 0.00 0.11 0.00 68 1009.4
20260505122524 64 199 2.0 5.0 0.00 0.12 0.00 69 1009.4
20260505122003 64 204 2.0 5.0 0.00 0.12 0.00 68 1009.4
20260505121503 64 222 1.0 3.0 0.00 0.12 0.00 69 1009.4
20260505121003 63 231 2.0 3.0 0.00 0.12 0.00 70 1009.4
20260505120503 63 232 1.0 3.0 0.00 0.12 0.00 70 1009.4
20260505120004 62 231 1.0 3.0 0.00 0.12 0.00 71 1009.3
20260505115503 62 237 1.0 5.0 0.00 0.12 0.00 72 1009.4
20260505115003 62 230 2.0 5.0 0.00 0.12 0.00 72 1009.5
20260505114503 62 228 2.0 4.0 0.00 0.12 0.00 71 1009.4
20260505114003 62 241 1.0 5.0 0.00 0.12 0.00 71 1009.4
20260505113503 62 249 2.0 9.0 0.00 0.12 0.00 71 1009.6
20260505113003 62 256 3.0 9.0 0.00 0.12 0.00 71 1009.6
20260505112503 62 258 3.0 6.0 0.00 0.12 0.00 71 1009.6
20260505112003 62 245 2.0 7.0 0.00 0.12 0.00 71 1009.6
20260505111503 62 241 2.0 7.0 0.00 0.12 0.00 72 1009.3
20260505111003 61 246 2.0 5.0 0.00 0.12 0.00 71 1009.3
20260505110503 61 247 3.0 10.0 0.00 0.12 0.00 72 1009.2
20260505102003 60 219 2.0 7.0 0.00 0.14 0.00 71 1008.4
20260505101524 60 216 2.0 7.0 0.00 0.14 0.00 71 1008.3
20260505101003 60 212 2.0 7.0 0.00 0.14 0.00 71 1008.2
20260505100503 61 213 3.0 7.0 0.00 0.14 0.00 71 1008.1
20260505100003 61 209 3.0 10.0 0.00 0.15 0.00 70 1008.0
20260505095503 61 202 2.0 10.0 0.00 0.15 0.00 71 1008.0
20260505095003 61 207 2.0 6.0 0.00 0.17 0.00 71 1007.8
20260505094503 61 214 2.0 8.0 0.00 0.19 0.00 70 1007.8
20260505094024 61 211 3.0 10.0 0.00 0.19 0.00 70 1007.8
20260505093524 61 210 3.0 10.0 0.00 0.20 0.00 70 1007.8
20260505093003 61 213 3.0 7.0 0.00 0.20 0.00 69 1007.7
20260505092503 62 208 3.0 9.0 0.00 0.20 0.00 69 1007.8
20260505092024 62 200 3.0 9.0 0.00 0.20 0.00 69 1007.8
20260505091503 62 200 3.0 9.0 0.00 0.20 0.00 68 1007.8
20260505091003 62 206 3.0 9.0 0.00 0.20 0.00 68 1007.8
20260505090503 62 209 3.0 9.0 0.00 0.20 0.00 67 1007.7
20260505090003 62 208 4.0 11.0 0.00 0.20 0.00 67 1007.7
20260505085524 63 207 3.0 11.0 0.00 0.20 0.00 67 1007.7
20260505085003 63 204 3.0 12.0 0.00 0.20 0.00 67 1007.6
20260505084524 63 207 3.0 12.0 0.00 0.20 0.00 66 1007.5
20260505084003 63 208 3.0 10.0 0.00 0.20 0.00 66 1007.5
20260505083503 63 206 3.0 12.0 0.00 0.20 0.00 66 1007.5
20260505083003 64 210 4.0 12.0 0.00 0.20 0.00 66 1007.4
20260505082503 64 208 5.0 12.0 0.00 0.20 0.00 65 1007.3
20260505082003 64 207 4.0 12.0 0.00 0.20 0.00 65 1007.1
20260505081503 64 208 4.0 11.0 0.00 0.20 0.00 65 1007.1
20260505081003 64 206 4.0 10.0 0.00 0.20 0.00 65 1007.0
20260505080503 64 207 4.0 10.0 0.00 0.20 0.00 65 1007.0
20260505080024 64 208 4.0 10.0 0.00 0.20 0.00 65 1007.1
20260505075503 64 210 3.0 10.0 0.00 0.20 0.00 65 1007.1
20260505075003 64 210 4.0 10.0 0.00 0.20 0.00 65 1007.2
20260505074503 64 208 4.0 10.0 0.00 0.20 0.00 64 1007.2
20260505074024 64 210 4.0 9.0 0.00 0.20 0.00 64 1007.1
20260505073503 64 210 3.0 13.0 0.00 0.20 0.00 64 1007.1
20260505073003 64 208 4.0 13.0 0.00 0.20 0.00 64 1007.1
20260505072503 65 207 4.0 12.0 0.00 0.20 0.00 64 1007.0
20260505072003 65 208 5.0 13.0 0.00 0.20 0.00 64 1007.1
20260505071503 64 208 5.0 13.0 0.00 0.20 0.00 64 1007.1
20260505071024 64 207 5.0 12.0 0.00 0.20 0.00 65 1007.1
20260505070503 64 205 4.0 12.0 0.00 0.20 0.00 64 1007.1
20260505070003 64 207 4.0 11.0 0.00 0.20 0.00 65 1007.1
20260505065524 64 206 4.0 12.0 0.00 0.20 0.00 65 1007.0
20260505065003 64 207 4.0 13.0 0.00 0.20 0.00 65 1006.9
20260505064503 64 207 5.0 13.0 0.00 0.20 0.00 65 1007.0
20260505064024 64 205 5.0 13.0 0.00 0.20 0.00 65 1007.0
20260505063503 64 205 5.0 13.0 0.00 0.20 0.00 65 1007.0
20260505063024 64 204 4.0 13.0 0.00 0.20 0.00 65 1007.0
20260505062503 64 207 4.0 14.0 0.00 0.20 0.00 65 1007.0
20260505062003 64 203 4.0 14.0 0.00 0.20 0.00 66 1007.0
20260505061503 64 200 4.0 12.0 0.00 0.20 0.00 65 1007.1
20260505061003 64 206 4.0 11.0 0.00 0.20 0.00 66 1007.1
20260505060503 64 202 4.0 11.0 0.00 0.20 0.00 66 1007.2
20260505060003 64 197 4.0 10.0 0.00 0.20 0.00 67 1007.2
20260505055503 64 203 3.0 8.0 0.00 0.20 0.00 67 1007.2
20260505055003 64 208 3.0 9.0 0.00 0.20 0.00 67 1007.1
20260505054503 64 200 4.0 9.0 0.00 0.20 0.00 67 1007.2
20260505054003 64 190 4.0 9.0 0.00 0.20 0.00 67 1007.2
20260505053503 63 193 3.0 8.0 0.00 0.20 0.00 68 1007.3
20260505053024 63 194 3.0 8.0 0.00 0.20 0.00 68 1007.4
20260505052503 63 191 3.0 8.0 0.00 0.20 0.00 68 1007.3
20260505052003 63 195 2.0 6.0 0.00 0.20 0.00 68 1007.5
20260505051503 64 192 2.0 6.0 0.00 0.20 0.00 68 1007.6
20260505051003 64 195 3.0 7.0 0.00 0.20 0.00 67 1007.5
20260505050503 64 203 3.0 8.0 0.00 0.20 0.00 67 1007.6
20260505041503 64 204 3.0 7.0 0.00 0.20 0.00 67 1007.5
20260505041003 65 202 3.0 8.0 0.00 0.20 0.00 66 1007.4
20260505040503 65 200 3.0 8.0 0.00 0.20 0.00 66 1007.3
20260505040003 65 200 3.0 8.0 0.00 0.20 0.00 66 1007.3
20260505035503 65 199 2.0 7.0 0.00 0.20 0.20 66 1007.2
20260505035003 65 201 2.0 6.0 0.00 0.20 0.20 65 1007.2
20260505034503 65 209 2.0 5.0 0.00 0.20 0.20 65 1007.2
20260505034003 66 200 2.0 6.0 0.00 0.20 0.20 65 1007.2
20260505033503 66 200 2.0 6.0 0.00 0.20 0.20 65 1007.1
20260505033003 66 203 2.0 6.0 0.00 0.20 0.20 65 1007.2
20260505032503 66 199 2.0 7.0 0.00 0.20 0.20 65 1007.1
20260505032024 65 199 2.0 7.0 0.00 0.20 0.20 65 1007.1
20260505031503 65 203 3.0 8.0 0.00 0.20 0.20 66 1007.1
20260505031003 65 205 3.0 8.0 0.00 0.20 0.20 66 1007.1
20260505030503 66 204 2.0 7.0 0.00 0.20 0.20 65 1007.0
20260505030024 66 203 2.0 7.0 0.00 0.20 0.20 66 1006.9
20260505025524 66 206 3.0 7.0 0.00 0.20 0.20 66 1006.8
20260505025003 66 199 3.0 7.0 0.00 0.20 0.20 66 1006.8
20260505024503 66 195 2.0 6.0 0.00 0.20 0.20 65 1006.7
20260505024003 66 198 2.0 6.0 0.00 0.20 0.20 65 1006.5
20260505023503 66 189 2.0 7.0 0.00 0.20 0.20 64 1006.4
20260505023003 66 184 2.0 9.0 0.00 0.20 0.20 64 1006.3
20260505022503 66 185 2.0 9.0 0.00 0.20 0.20 64 1006.3
20260505022003 66 191 2.0 7.0 0.00 0.20 0.20 63 1006.2
20260505021503 66 194 3.0 7.0 0.00 0.20 0.20 63 1006.1
20260505021024 66 194 2.0 7.0 0.00 0.20 0.20 64 1006.1
20260505020503 66 188 2.0 7.0 0.00 0.20 0.20 64 1006.1
20260505020024 66 180 2.0 6.0 0.00 0.20 0.20 64 1006.0
20260505015503 66 178 2.0 6.0 0.00 0.20 0.20 63 1006.0
20260505015003 67 186 2.0 6.0 0.00 0.20 0.20 63 1006.0
20260505014503 67 184 2.0 6.0 0.00 0.20 0.20 64 1006.0
20260505014003 67 186 2.0 6.0 0.00 0.20 0.20 63 1005.9
20260505013524 67 188 2.0 6.0 0.00 0.20 0.20 64 1005.9
20260505013003 67 181 1.0 5.0 0.00 0.20 0.20 63 1005.9
20260505012503 67 178 1.0 3.0 0.00 0.20 0.20 62 1005.9
20260505012003 67 175 1.0 3.0 0.00 0.20 0.20 63 1005.9
20260505011503 68 181 1.0 5.0 0.00 0.20 0.20 63 1006.0
20260505011003 68 191 1.0 5.0 0.00 0.20 0.20 62 1005.9
20260505010524 68 187 1.0 4.0 0.00 0.20 0.20 62 1005.9
20260505010003 68 188 1.0 4.0 0.00 0.20 0.20 61 1005.9
20260505005503 69 194 1.0 4.0 0.00 0.20 0.20 61 1005.9
20260505005004 69 193 2.0 6.0 0.00 0.20 0.20 60 1005.9
20260505004524 69 194 1.0 6.0 0.00 0.20 0.20 60 1005.8
20260505004003 70 191 1.0 5.0 0.00 0.20 0.20 59 1005.8
20260505003503 70 182 1.0 5.0 0.00 0.20 0.20 58 1005.7
20260505003024 71 182 1.0 4.0 0.00 0.20 0.20 57 1005.7
20260505002503 71 192 2.0 7.0 0.00 0.20 0.20 57 1005.8
20260505002003 72 190 2.0 6.0 0.00 0.20 0.20 57 1005.8
20260505001503 72 188 2.0 7.0 0.00 0.20 0.20 55 1005.9
20260505001003 72 188 2.0 7.0 0.00 0.20 0.20 55 1006.0
20260505000503 73 194 3.0 7.0 0.00 0.20 0.20 54 1006.0
20260505000003 73 202 3.0 11.0 0.00 0.20 0.20 54 1006.1
20260504235503 73 206 3.0 11.0 0.00 0.20 0.20 53 1006.2
20260504235003 74 213 3.0 10.0 0.00 0.20 0.20 53 1006.2
20260504234503 74 211 3.0 10.0 0.00 0.20 0.20 53 1006.3
20260504234003 74 209 4.0 10.0 0.00 0.20 0.20 52 1006.3
20260504233524 75 212 4.0 10.0 0.00 0.20 0.20 52 1006.4
20260504233003 75 210 5.0 14.0 0.00 0.20 0.20 51 1006.5
20260504232524 75 213 4.0 14.0 0.00 0.20 0.20 50 1006.6
20260504232003 76 214 5.0 16.0 0.00 0.20 0.20 50 1006.7
20260504231524 76 211 5.0 16.0 0.00 0.20 0.20 49 1006.6
20260504231003 76 216 4.0 16.0 0.00 0.20 0.20 50 1006.8
20260504230503 76 218 4.0 16.0 0.00 0.20 0.20 50 1006.8
20260504230003 76 218 4.0 12.0 0.00 0.20 0.20 48 1006.8
20260504225503 76 217 4.0 12.0 0.00 0.20 0.20 50 1006.8
20260504225003 76 218 5.0 15.0 0.00 0.20 0.20 49 1006.9
20260504224503 76 224 6.0 15.0 0.00 0.20 0.20 49 1007.0
20260504224003 76 226 5.0 15.0 0.00 0.20 0.20 48 1007.1
20260504223503 76 223 5.0 13.0 0.00 0.20 0.20 47 1007.1
20260504223003 76 227 6.0 15.0 0.00 0.20 0.20 46 1007.2
20260504222503 77 226 6.0 15.0 0.00 0.20 0.20 48 1007.1
20260504222024 77 223 6.0 17.0 0.00 0.20 0.20 45 1007.2
20260504221503 78 223 6.0 17.0 0.00 0.20 0.20 45 1007.1
20260504221003 78 220 7.0 14.0 0.00 0.20 0.20 46 1007.2
20260504220524 78 220 7.0 15.0 0.00 0.20 0.20 45 1007.1
20260504220003 78 220 6.0 16.0 0.00 0.20 0.20 47 1007.2
20260504215503 77 221 6.0 17.0 0.00 0.20 0.20 48 1007.3
20260504215003 76 224 6.0 17.0 0.00 0.20 0.20 50 1007.3
20260504214503 76 229 5.0 15.0 0.00 0.20 0.20 50 1007.3
20260504214003 76 229 4.0 14.0 0.00 0.20 0.20 50 1007.3
20260504213503 77 235 4.0 13.0 0.00 0.20 0.20 49 1007.3
20260504213003 78 237 5.0 15.0 0.00 0.20 0.20 49 1007.3
20260504212503 78 225 5.0 15.0 0.00 0.20 0.20 46 1007.3
20260504212003 78 218 5.0 15.0 0.00 0.20 0.20 47 1007.2
20260504211524 78 223 5.0 13.0 0.00 0.20 0.20 48 1007.3
20260504211003 78 225 5.0 15.0 0.00 0.20 0.20 48 1007.3
20260504210524 79 220 5.0 15.0 0.00 0.20 0.20 48 1007.2
20260504210003 79 216 5.0 11.0 0.00 0.20 0.20 47 1007.2
20260504205503 80 221 4.0 9.0 0.00 0.20 0.20 47 1007.2
20260504205003 80 221 4.0 14.0 0.00 0.20 0.20 50 1007.3
20260504204503 79 223 4.0 14.0 0.00 0.20 0.20 49 1007.3
20260504204003 79 233 4.0 16.0 0.00 0.20 0.20 49 1007.3
20260504203503 78 230 5.0 16.0 0.00 0.20 0.20 50 1007.4
20260504203024 78 229 6.0 14.0 0.00 0.20 0.20 47 1007.4
20260504202503 78 232 7.0 19.0 0.00 0.20 0.20 47 1007.4
20260504202003 78 227 8.0 19.0 0.00 0.20 0.20 47 1007.5
20260504201503 78 222 6.0 17.0 0.00 0.20 0.20 50 1007.6
20260504201003 78 223 5.0 13.0 0.00 0.20 0.20 51 1007.7
20260504200503 78 226 5.0 16.0 0.00 0.20 0.20 49 1007.8
20260504200003 78 227 6.0 16.0 0.00 0.20 0.20 50 1007.9
20260504195503 78 224 8.0 18.0 0.00 0.20 0.20 54 1008.1
20260504195003 78 221 7.0 18.0 0.00 0.20 0.20 51 1008.1
20260504194503 77 222 7.0 15.0 0.00 0.20 0.20 51 1008.2
20260504194003 77 224 6.0 15.0 0.00 0.20 0.20 49 1008.3
20260504193503 78 223 4.0 13.0 0.00 0.20 0.20 51 1008.4
20260504193003 77 221 4.0 11.0 0.00 0.20 0.20 56 1008.4
20260504192503 77 214 6.0 18.0 0.00 0.20 0.20 55 1008.5
20260504192003 77 215 6.0 18.0 0.00 0.20 0.20 56 1008.5
20260504191503 77 218 5.0 14.0 0.00 0.20 0.20 54 1008.6
20260504191003 77 218 5.0 15.0 0.00 0.20 0.20 53 1008.7
20260504190503 77 223 5.0 15.0 0.00 0.20 0.20 57 1008.8
20260504190003 77 216 5.0 15.0 0.00 0.20 0.20 54 1008.7
20260504185503 76 214 5.0 15.0 0.00 0.20 0.20 55 1008.8
20260504185024 76 216 5.0 15.0 0.00 0.20 0.20 56 1008.7
20260504184503 76 211 5.0 16.0 0.00 0.20 0.20 54 1008.7
20260504184003 76 209 5.0 16.0 0.00 0.20 0.20 56 1008.7
20260504183503 75 208 6.0 14.0 0.00 0.20 0.20 62 1008.7
20260504183003 75 206 6.0 14.0 0.00 0.20 0.20 57 1008.7
20260504182503 75 203 5.0 14.0 0.00 0.20 0.20 57 1008.7
20260504182003 75 205 5.0 14.0 0.00 0.20 0.20 59 1008.8
20260504181503 75 213 5.0 12.0 0.00 0.20 0.20 59 1008.7
20260504181003 74 214 5.0 16.0 0.00 0.20 0.20 59 1008.8
20260504180503 74 217 6.0 18.0 0.00 0.20 0.20 56 1008.9
20260504180003 74 217 5.0 18.0 0.00 0.20 0.20 57 1008.8
20260504175503 74 218 4.0 13.0 0.00 0.20 0.20 60 1008.8
20260504175003 74 212 5.0 15.0 0.00 0.20 0.20 59 1008.9
20260504174503 73 209 6.0 15.0 0.00 0.20 0.20 58 1008.8
20260504174024 73 218 5.0 15.0 0.00 0.20 0.20 58 1008.9
20260504173503 73 217 5.0 17.0 0.00 0.20 0.20 60 1009.0
20260504173003 72 207 7.0 19.0 0.00 0.20 0.20 59 1009.1
20260504172503 72 213 7.0 19.0 0.00 0.20 0.20 56 1009.2
20260504172003 72 219 6.0 18.0 0.00 0.20 0.20 56 1009.2
20260504171524 72 218 5.0 18.0 0.00 0.20 0.20 60 1009.2
20260504171003 72 213 5.0 13.0 0.00 0.20 0.20 62 1009.2
20260504170503 71 208 5.0 13.0 0.00 0.20 0.20 61 1009.3
20260504151003 59 182 4.0 12.0 0.02 0.20 0.20 84 1009.8
20260504150503 57 178 4.0 13.0 0.04 0.20 0.20 87 1009.8